Airfield :
LOGIN :

Register | Disclaimer

   EN    FR    IT 

 










Legend :    VFR   Marginal VFR   IFR   Intensive IFR   Very Intensive IFR
Visi :
Ceiling :
>= 8 km
>= 3000ft
5 to 8 km
1000 to 3000 ft
1500m to 5 km
500 to 1000 ft
800 to 1500m
200 to 500 ft
< 800m
< 200 ft
Symbols :   Thunderstorms  Fog  Heavy snow  Heavy precipitations  Wind > 20 kt
SIGMETs :     Misc.  Thunderstorms  Icing  Turbulence  Mountain Waves  Volcanic Ashes







- Airport Elevation : 1768 ft


LEHC - Huesca Pirineos

CURRENT METAR :
  • 230000Z AUTO 27011G22KT 9999 NCD 10/06 Q1025

EXPIRED METARs :
  • 222330Z AUTO 25012KT 9999 NCD 09/07 Q1025
  • 222300Z AUTO 23010KT 9999 NCD 09/07 Q1025
  • 222230Z AUTO 24012KT 9999 NCD 09/07 Q1025
  • 222200Z AUTO 26012KT 230V290 9999 NCD 10/07 Q1025
  • 222130Z AUTO 26014KT 9999 NCD 10/07 Q1025
  • 222100Z AUTO 26013KT 9999 NCD 12/07 Q1025

TAF TAF LEHC
Valid from the 22 at 09:00 until the 23 at 09:00 UTC


220800Z 2209/2309 28017KT 9999 FEW030 TX16/2214Z TN04/2307Z
TEMPO 2210/2220 29022G35KT
BECMG 2301/2303 28006KT
No reported NOTAMs for that airfield.



MET'MAP, your aeronautical weather chart ! - Copyright ORBIFLY December 2007 - Disclaimer

ORBIFLY MET'MAP TEAM :

Programming & Development : Alexandra Zaïnal
Concept & Development : Baudouin d'Aumeries
Co-Development & Prog : Marc-Olivier Méhu
Technical & hardware support : Manuel Goepfert

Contact : metmap@orbifly.com




SOURCES & CREDITS :

   NOAA